Weather in Kirillovo

Russia / Nizhny Novgorod Oblast'     57°07′14″N   45°25′53″E
temp.,
°C
wind,
m/s
gust,
m/s
humid.,
%
clouds,
%
prec.,
mm/h
press.,
hPa
HPBL,
m
27 january, thu
thu2700:00−16ssw1199100 0.1 101619
03:00−15ssw1198100 0.2 101634
06:00−14ssw239882 0.2 101668
09:00−19sw2310089 0.2 101752
12:00−13ssw3593100 0.0 1017299
15:00−12ssw2594100 0.1 1018374
18:00−17s24100100 0.1 101857
21:00−19s2310096 0.1 101852
28 january, fri
fri2800:00−21s2310097 0.0 101847
03:00−20sse25100100 0.1 101775
06:00−20sse26100100 0.0 101796
09:00−18sse399870 0.0 1017176
12:00−11s3893100 0.0 1016356
15:00−9sse31093100 0.1 1015500
18:00−11se3109799 0.0 1014219
21:00−6sse41295100 0.3 1013626
29 january, sat
sat2900:00−7sse4119594 0.2 1013422
03:00−9se41095100 0.3 1012328
06:00−11se31096100 0.1 1011278
09:00−11se31096100 0.1 1010296
12:00−8sse4993100 0.1 1009353
15:00−7sse3894100 0.3 1008445
18:00−9sse389681 0.1 1008255
21:00−10sse279782 0.2 1007165
30 january, sun
sun3000:00−11se259773 0.1 100698
03:00−11se259775 0.3 1005107
06:00−11sse279888 0.1 1003112
09:00−9sse279688 0.3 1002173
12:00−5sse389598 0.1 1001337
15:00−4sse489496 0.2 1000503
18:00−6sse4109698 0.1 1000333
21:00−6se41096100 0.2 998412
31 january, mon
mon3100:00−6sse41092100 0.0 998468
03:00−7sse41194100 0.3 997500
06:00−7se41294100 0.2 996534
09:00−6se5139496 0.4 996562
12:00−3se51296100 0.4 995654
15:00−1sse4893100 0.8 994897
18:00−1se4996100 0.1 994438
21:00−1ese41098100 0.4 993489